Probability
0 0 0 0 0 0 0 0 0 0 0 0 0 1 2 3 2 2 3 6 12 18 23 25 27 30 34 39 39 36 34 33 34 34 31 27 22 18 15 14 15 14 12 10
0 0 0 0 0 0 0 0 0 0 0 0 0 1 2 2 2 1 2 6 12 18 23 25 26 28 31 35 36 34 32 32 33 33 31 27 24 21 19 18 17 15 12 10
0 0 0 0 0 0 0 0 0 0 0 0 0 1 2 2 1 1 2 6 12 18 22 23 24 25 27 29 32 32 32 32 31 32 31 29 26 24 22 21 19 15 12 10
0 0 0 0 0 0 0 0 0 0 0 0 0 1 1 1 1 1 3 6 11 18 21 21 21 22 23 24 26 29 30 30 31 31 31 31 29 25 24 23 20 17 13 12
0 0 0 0 0 0 0 0 0 0 0 0 0 0 0 0 1 2 4 7 12 17 20 20 18 18 17 17 19 23 25 26 29 29 29 30 28 26 24 22 20 17 15 14
0 0 0 0 0 0 0 0 0 0 0 0 0 0 0 0 1 2 6 11 16 18 18 18 17 16 14 12 14 18 21 23 25 26 26 26 24 23 21 19 17 15 13 13
0 0 0 0 0 0 0 0 0 0 0 0 0 0 1 2 2 3 8 14 17 17 17 18 18 17 14 11 12 16 19 21 23 24 23 22 20 20 19 16 14 13 12 12
0 0 0 0 0 0 0 0 0 0 0 0 0 1 2 3 3 4 9 13 15 15 15 16 18 18 15 12 13 16 19 21 21 21 20 19 19 18 16 14 12 12 12 11
0 0 0 0 0 0 0 0 1 1 0 0 0 2 4 4 5 6 10 12 13 13 13 13 15 15 13 13 15 18 21 22 21 19 17 17 18 16 13 11 11 11 11 11
0 0 0 0 0 0 0 0 1 1 0 0 0 2 5 6 7 8 11 11 12 13 12 12 12 11 10 11 13 16 19 20 19 17 15 15 14 14 11 10 10 11 10 10
0 0 1 1 0 0 0 0 1 1 0 0 1 3 5 6 7 9 11 10 9 9 9 9 9 8 7 6 9 12 14 15 16 14 13 12 12 11 10 8 9 10 11 11
0 0 1 1 1 1 1 0 0 0 0 0 1 2 3 4 6 8 10 9 6 4 5 6 7 6 4 3 6 8 9 10 13 12 11 11 10 10 8 8 8 10 11 11
0 0 0 1 1 2 2 1 1 0 0 0 0 1 2 3 5 7 9 8 4 2 3 5 5 4 2 2 4 7 7 8 9 10 10 10 10 9 9 8 9 10 10 10
1 0 0 0 1 1 2 2 2 1 1 0 0 0 1 3 4 5 8 7 4 2 2 5 4 2 1 1 3 6 6 7 7 8 8 9 9 10 9 9 9 9 8 8
2 1 0 0 0 0 1 2 2 2 2 1 0 0 0 1 1 3 6 6 4 2 3 4 3 1 0 0 2 5 6 7 7 7 7 8 9 10 9 9 9 8 7 7
2 1 0 0 0 0 0 1 1 2 2 1 0 0 0 0 0 2 3 4 4 3 4 4 2 0 0 1 2 5 5 6 7 7 6 7 8 9 9 9 8 7 6 6
1 0 0 0 0 0 0 0 0 1 1 0 0 0 0 0 0 1 2 3 4 3 4 4 1 0 0 1 3 4 4 4 5 6 6 5 5 6 6 7 6 6 5 5
0 0 0 0 0 0 0 0 0 0 0 0 0 0 0 0 0 1 1 3 4 4 3 2 1 0 0 2 3 3 3 2 3 4 4 4 4 4 4 5 6 6 5 5
0 0 0 0 0 0 0 0 0 0 0 0 0 0 0 0 0 0 1 3 4 4 2 1 1 1 0 1 2 1 1 1 1 1 2 3 3 3 3 4 6 7 8 7
0 0 0 0 0 0 0 0 0 0 1 1 1 1 0 0 1 1 1 3 3 2 0 1 1 1 1 1 2 1 1 1 0 0 1 2 3 3 4 5 7 8 8 8
0 0 0 1 0 0 0 0 0 0 1 2 2 2 1 1 3 3 2 2 2 1 0 0 1 1 1 2 3 3 3 2 1 0 0 1 2 3 4 5 6 7 7 7
0 0 1 1 0 0 0 0 0 0 1 1 1 2 2 2 3 3 2 2 3 1 0 0 0 0 1 2 3 3 3 2 1 0 0 1 1 2 3 4 6 6 6 6
0 1 2 2 1 0 0 0 0 0 0 0 1 2 2 2 1 1 1 2 3 1 0 0 0 0 0 1 2 1 1 1 0 0 0 1 1 1 3 4 5 5 5 5
1 1 2 2 1 0 0 0 0 0 0 1 2 2 1 1 0 1 2 2 2 1 0 0 0 0 0 0 0 0 0 0 0 0 0 0 0 1 2 3 3 3 3 4
0 0 0 0 0 0 0 0 0 0 0 1 2 3 1 1 1 2 2 1 1 0 0 0 0 0 0 0 0 0 0 0 0 0 0 0 0 0 1 1 1 1 2 2
0 0 0 0 0 0 0 0 0 0 0 1 2 3 2 2 2 1 1 0 0 0 0 0 0 0 0 0 0 0 0 0 0 0 0 0 0 0 0 0 0 0 1 1
Wind_Speed
5 7 5 3 5 6 7 8 7 5 3 6 7 7 5 4 5 5 4 3 4 3 4 4 5 6 6 6 7 7 7 7 6 5 5 4 4 3 3 3 4 4 3 3
7 5 2 4 5 8 8 9 7 4 2 6 7 8 5 4 5 4 4 3 2 3 4 4 5 6 6 7 6 7 7 7 6 5 4 3 3 3 3 3 3 4 4 4
6 2 2 5 6 8 8 8 7 6 5 8 8 9 7 5 5 4 3 3 2 2 3 4 5 5 6 6 6 6 6 7 6 6 4 4 3 3 3 4 4 4 4 4
5 2 4 6 5 7 7 5 7 8 9 6 7 7 3 5 5 4 4 3 3 3 3 4 5 5 5 5 6 6 6 6 6 6 5 5 4 4 4 3 3 3 3 3
3 4 6 6 5 7 6 6 8 9 10 9 7 9 1 4 4 3 3 2 2 3 3 4 4 4 4 4 5 5 6 6 6 5 5 5 4 3 3 2 3 3 3 3
5 4 4 5 6 5 5 7 8 9 10 9 4 7 2 1 1 0 2 2 2 3 4 3 4 4 4 4 4 5 6 6 6 6 5 5 4 4 4 4 4 3 3 3
4 3 2 3 5 3 6 7 6 6 6 4 2 5 3 4 3 2 2 3 4 4 4 3 3 4 4 4 4 5 5 5 6 6 5 5 5 5 5 4 4 3 2 2
6 3 1 3 6 6 6 8 6 7 6 5 3 5 3 4 3 3 4 4 4 4 4 3 3 3 3 3 4 4 5 5 5 5 5 5 5 3 3 3 2 3 2 2
6 5 2 3 4 6 6 6 7 9 9 8 4 2 1 2 3 3 3 4 3 3 3 3 3 3 2 2 3 3 4 4 4 4 4 4 4 3 2 3 3 2 1 1
6 7 4 3 3 3 6 7 6 7 6 6 4 3 3 4 5 4 3 2 2 2 2 2 2 2 2 2 2 3 3 3 3 4 3 3 3 3 3 3 2 2 2 1
7 7 5 3 3 5 4 4 5 6 6 6 5 2 5 5 4 3 3 2 1 1 1 2 2 2 2 2 3 3 3 3 2 2 3 3 3 3 3 3 2 2 1 1
6 6 6 4 1 3 5 6 6 6 5 6 6 2 6 6 5 4 3 2 2 1 1 2 2 2 3 3 3 3 3 3 2 2 3 3 3 3 3 2 2 1 1 1
6 5 5 3 3 0 4 5 7 7 6 5 6 2 5 6 6 5 3 2 1 1 2 2 2 2 2 3 2 2 3 3 2 3 3 3 3 3 3 2 2 1 1 1
7 5 6 6 6 6 8 8 7 7 6 5 6 7 6 8 7 5 3 2 1 1 2 2 2 2 2 2 2 2 2 3 3 2 3 3 3 3 2 2 2 1 1 1
6 5 5 6 6 6 7 8 7 6 7 7 7 7 7 7 7 5 2 1 1 1 2 2 2 1 2 2 2 2 2 2 2 2 3 2 2 2 2 2 2 1 1 1
5 6 6 6 5 4 6 8 7 6 7 7 6 5 7 7 6 4 2 1 0 1 1 1 1 1 1 2 2 2 2 2 3 3 2 2 3 3 2 2 2 1 1 1
5 5 6 5 5 5 2 6 7 6 6 7 7 7 7 7 7 4 2 1 0 0 1 1 1 1 1 1 2 2 2 3 3 3 2 3 3 3 2 2 2 2 1 1
5 6 5 5 5 3 3 6 7 6 6 6 7 7 8 8 6 3 2 2 1 1 0 1 1 1 1 2 2 3 3 3 3 3 3 2 3 2 2 2 2 1 1 2
3 4 4 4 4 3 2 7 9 6 5 8 8 8 8 7 4 2 5 5 3 2 0 2 2 2 2 2 3 3 3 3 3 3 2 2 2 2 2 1 1 1 2 2
1 3 4 4 4 2 5 10 10 6 1 9 10 8 7 6 5 4 5 5 4 2 1 1 3 3 3 3 3 4 3 3 3 3 3 2 2 2 2 1 1 2 2 3
2 2 4 4 3 1 8 11 8 4 7 10 10 8 7 7 6 4 4 4 3 1 1 2 3 3 2 3 4 4 4 3 2 2 2 2 2 2 2 2 2 2 3 3
4 3 3 4 3 3 11 9 8 8 8 8 8 7 6 5 4 3 3 2 2 1 1 2 3 3 3 3 3 4 3 2 3 2 2 2 2 2 1 1 2 2 3 3
3 5 5 4 4 6 8 8 7 7 8 8 7 6 5 4 3 3 2 2 1 1 1 2 3 4 3 3 3 3 3 3 3 3 2 2 2 1 1 2 2 2 2 3
2 4 5 4 4 7 7 7 7 7 8 8 7 6 4 4 2 2 1 1 1 1 2 2 3 4 4 3 3 2 3 3 3 3 2 2 2 2 1 1 1 1 2 2
6 5 5 5 6 6 6 8 9 8 8 7 6 5 4 3 2 1 1 0 1 2 2 2 3 4 4 4 3 3 3 3 3 2 2 2 2 1 1 1 1 2 2 3
4 5 6 5 6 8 9 10 10 9 7 6 5 5 4 3 1 1 0 1 1 2 2 3 3 3 4 4 3 3 3 3 3 2 2 2 1 1 1 1 1 1 1 0
Wind_Direction
216 238 242 263 269 288 280 270 265 266 245 247 257 258 247 232 240 240 229 212 198 171 147 148 158 159 157 158 157 161 169 172 172 169 173 176 184 184 186 191 187 199 204 194
226 231 282 286 269 262 259 260 262 259 233 259 264 259 240 228 232 241 231 223 213 175 146 147 161 160 163 160 158 163 171 170 174 168 177 185 178 185 183 186 184 197 201 207
269 335 317 270 264 263 260 265 278 284 269 241 258 248 214 205 216 214 222 210 198 189 175 155 157 164 164 159 158 163 170 171 174 169 174 169 169 182 180 188 187 194 198 204
263 282 275 272 273 279 270 282 282 274 265 260 252 272 202 197 206 202 206 198 183 177 170 157 163 164 163 161 155 156 165 171 168 176 183 186 192 195 189 192 174 174 189 203
276 293 288 286 306 289 297 297 272 264 261 265 243 265 195 179 210 199 196 182 169 163 153 153 161 158 157 156 156 158 163 169 167 176 181 188 195 193 174 167 161 181 179 193
278 270 287 303 297 280 292 269 249 243 246 249 260 269 275 67 317 92 133 145 144 136 128 128 135 147 151 156 161 163 163 168 173 180 185 191 188 188 175 174 173 185 172 176
257 231 229 292 297 244 279 279 255 243 244 262 273 267 341 39 34 31 92 122 129 132 133 133 136 141 147 159 162 164 166 169 174 179 183 189 187 191 189 184 179 184 176 177
291 264 328 314 302 295 284 284 289 288 287 288 256 277 16 57 58 57 81 101 116 127 133 134 130 132 137 150 156 164 168 168 174 179 180 183 188 196 183 182 197 192 198 179
312 299 312 307 288 279 273 279 303 284 275 275 268 267 135 84 72 67 81 98 112 119 126 126 121 128 133 135 144 156 158 162 168 177 177 178 183 183 173 178 200 193 189 181
309 292 302 310 259 255 290 297 287 280 284 279 268 293 357 38 28 27 40 52 88 103 124 123 128 139 122 125 134 141 149 157 160 168 170 161 169 176 183 186 178 179 196 195
313 286 293 291 297 311 295 285 291 286 290 294 299 355 32 15 15 17 21 28 37 104 138 138 139 134 127 123 127 141 152 152 153 150 145 147 157 164 170 174 174 180 189 208
339 295 288 285 294 314 305 310 298 287 292 289 294 359 43 29 28 28 25 31 46 73 121 136 133 136 137 133 130 136 151 153 152 144 144 148 149 152 164 161 168 194 198 225
329 297 283 248 191 315 329 324 309 291 279 282 289 345 44 27 20 21 25 39 60 95 110 124 130 142 142 138 133 130 141 151 150 145 146 139 149 159 167 166 170 185 193 241
302 287 292 300 316 324 320 319 316 299 290 305 312 324 359 7 3 1 9 20 70 107 129 133 138 151 144 141 142 142 140 146 146 147 145 144 162 167 163 170 170 176 192 237
321 292 299 300 303 310 319 321 323 317 318 313 321 334 3 0 349 345 353 7 97 114 134 135 138 136 142 144 143 140 142 144 150 154 154 152 159 163 169 175 172 165 207 247
331 307 300 291 297 316 325 330 327 329 328 324 337 357 14 360 352 2 8 343 74 113 106 106 109 131 159 164 159 153 147 147 157 161 162 154 153 156 169 179 177 186 228 265
315 306 303 299 315 294 311 351 344 346 355 340 343 358 356 352 350 354 358 359 7 29 176 196 199 165 165 168 170 166 161 159 162 165 163 161 159 156 172 192 186 194 227 257
303 306 293 299 301 287 47 14 351 341 6 11 9 2 353 346 338 352 20 359 338 346 234 192 186 171 169 159 167 175 166 165 167 168 165 163 163 160 177 203 199 225 254 264
283 300 297 293 287 289 19 8 348 329 359 28 12 356 352 348 338 41 28 355 349 357 302 174 165 162 157 158 165 164 165 169 169 166 166 173 180 184 190 199 216 242 262 274
218 275 284 296 296 325 26 360 341 299 20 26 359 344 341 330 329 6 0 341 346 8 45 138 153 152 150 160 160 163 171 175 174 173 174 181 188 200 205 207 250 261 266 274
318 279 291 299 293 6 14 349 330 327 0 345 336 330 322 331 347 343 332 335 349 20 82 144 146 145 151 154 159 163 162 168 170 170 164 167 182 209 222 232 251 267 279 294
316 310 310 301 291 9 3 352 358 344 331 329 327 326 328 341 348 345 351 359 4 35 107 135 140 138 139 153 161 158 152 160 167 169 169 177 197 222 207 225 256 275 285 274
320 337 320 318 330 344 340 342 337 327 323 329 327 323 319 322 335 345 358 8 18 64 119 132 141 135 138 154 164 152 143 156 159 162 172 179 184 214 235 235 247 260 266 280
312 324 292 290 306 333 334 344 341 337 333 329 323 317 312 312 322 342 357 6 53 97 128 143 152 145 144 152 160 158 153 156 159 165 171 173 180 200 203 250 264 296 308 312
303 299 291 281 312 324 334 340 338 334 330 330 327 326 323 313 311 330 331 352 103 116 128 139 143 143 143 147 153 154 154 159 167 171 170 184 183 184 216 224 334 320 5 355
259 277 292 302 322 316 314 321 324 320 321 322 323 331 333 337 343 24 47 79 110 127 133 134 136 139 136 138 146 150 156 165 173 176 181 194 179 173 233 206 140 103 243 154